Orbital Elements at Epoch 2459000.5 (2020-May-31.0) TDB
Reference: JPL 10 (heliocentric ecliptic J2000)
Element | Value | Uncertainty (1-sigma) | Units |
e | .2372692434669524 | 6.8889e-08 | |
a | 2.357972254934485 | 1.7362e-08 | au |
q | 1.798497961890116 | 1.5617e-07 | au |
i | 24.81496462566888 | 1.5389e-05 | deg |
node | 12.27712699964932 | 1.8056e-05 | deg |
peri | 69.69071966779238 | 3.7198e-05 | deg |
M | 177.4989903954652 | 3.2121e-05 | deg |
tp | 2458348.421547822948 (2018-Aug-17.92154782) | 0.00011442 | TDB |
period | 1322.532833909212 3.62 | 1.4607e-05 3.999e-08 | d yr |
n | .2722049621527301 | 3.0063e-09 | deg/d |
Q | 2.917446547978854 | 2.1481e-08 | au |
|
| | Orbit Determination Parameters
Additional Information
|